Вернуться в каталог

STARLINK-11206

АктивенСвязьVLEO
NORAD 60312·PAYLOAD·🇺🇸 United States

Запущен Jul 28, 2024 с Vandenberg Space Force Base

Loading…

Ближайшие Пролёты (ближайшие 24 часа)

TLE

СвежийSource: CelesTrak SupGP

Эпоха: Sep 14, 2026, 21:20 UTC

1 60312C 24133M   26257.88937500 -.00012724  00000+0 -10480-3 0  2577
2 60312  53.1567 293.8594 0001240  98.0421 332.1853 15.69717592    10

Отслеживайте STARLINK-11206 в реальном времени с AllMySat

Download on the App Store